Regional Weather Roundup
Issued by NWS Mobile, AL

Home | Current Version | Previous Version | Text Only | Print | Product List | Glossary On
Versions: 1 2 3 4 5 6 7 8 9 10 11 12 13 14 15 16 17 18 19 20 21 22 23 24 25 26 27 28
000
ASUS44 KMOB 271912
RWRMOB
REGIONAL WEATHER ROUNDUP
NATIONAL WEATHER SERVICE MOBILE AL
200 PM CDT WED JUL 27 2016

NOTE: "FAIR" INDICATES FEW OR NO CLOUDS BELOW 12,000 FEET WITH NO
      SIGNIFICANT WEATHER AND/OR OBSTRUCTIONS TO VISIBILITY.

  * THESE STATIONS ARE PART OF THE UNIVERSITY OF SOUTH ALABAMA
    MESONET AND ARE NOT UNDER NWS OR FAA QUALITY CONTROL.

ALZ061>064-272000-
COASTAL ALABAMA

CITY           SKY/WX    TMP DP  RH WIND       PRES   REMARKS
MOBILE REG APT PTSUNNY   89  75  63 S12G21    30.06F HX  99
BROOKLEY FIELD PTSUNNY   89  76  65 S13       30.06F HX 100
USA CAMPUS*    NOT AVBL
DOG RIVER*     NOT AVBL


CITY           SKY/WX    TMP DP  RH WIND       PRES   REMARKS
MOUNT VERNON*  NOT AVBL
SARALAND*      NOT AVBL
BAY MINETTE*   NOT AVBL
LOXLEY*        NOT AVBL
ROBERTSDALE*   NOT AVBL
FAIRHOPE*      NOT AVBL
ELBERTA*       NOT AVBL
FOLEY*         NOT AVBL
GRAND BAY*     NOT AVBL
DAUPHIN ISLND* NOT AVBL
BON SCOUR NWR* NOT AVBL
GULF SHORES    PTSUNNY   89  79  72 SW15G21   30.07S HX 104

$$

ALZ051>060-272000-
INTERIOR SOUTHWEST AND SOUTH CENTRAL ALABAMA

CITY           SKY/WX    TMP DP  RH WIND       PRES   REMARKS
GREENVILLE     PTSUNNY   88  71  57 W25G33    30.07R
EVERGREEN      MOSUNNY   84  73  69 VRB5      30.06F
CASTLEBERRY*   NOT AVBL
ATMORE*        NOT AVBL
DIXIE*         NOT AVBL
ANDALUSIA/OPP  MOSUNNY   95  69  42 VRB6      30.05F HX 100
ANDALUSIA*     NOT AVBL
FLORALA APT    PTSUNNY   84  74  71 VRB3      30.08F
FLORALA*       NOT AVBL

$$

FLZ001>006-272000-
WESTERN FLORIDA PANHANDLE

CITY           SKY/WX    TMP DP  RH WIND       PRES   REMARKS
PENSACOLA      MOSUNNY   90  76  63 S16       30.07S HX 101
NAS PENSACOLA  MOSUNNY   92  76  59 S14G22    30.06F HX 104
MILTON         MOSUNNY   90  73  57 S16       30.06F HX  98
WHTNG S FIELD  MOSUNNY   93  76  57 S15G22    30.06F HX 105


CITY           SKY/WX    TMP DP  RH WIND       PRES   REMARKS
WALNUT HILL*   NOT AVBL
JAY*           NOT AVBL
DUKE FIELD     MOSUNNY   90  75  61 S14       30.06F HX  99
CRESTVIEW      MOSUNNY   91  71  51 S14G20    30.07F HX  97
VALPARAISO     MOSUNNY   89  75  61 S13       30.07S HX  99
DESTIN         MOSUNNY   92  77  61 S9        30.07F HX 105

$$

MSZ076-079-272000-
INTERIOR SOUTHEAST MISSISSIPPI

CITY           SKY/WX    TMP DP  RH WIND       PRES   REMARKS
LEAKESVILLE*   NOT AVBL
AGRICOLA*      NOT AVBL

$$

MARINE OBSERVATIONS

STATION/POSITION TIME  TEMP    WIND        PRES    WAVE
                       AIR SEA DIR/SP/G            HT/PER
                 (UTC) (F)     (DEG/KT/KT) (MB)    (FT/S)
PASCAGOULA       1800   85     240/  6/ 12 1018.1F
PETIT BOIS ISLND 1800   83     250/  7/  9 1019.1S
GRAND BAY        1700   85     240/  7     1020.0
KATRINA CUT      1800   82     280/  9     1019.0F
CEDAR POINT      1800   82     260/  9     1018.3S
E DAUPHIN ISLAND 1900   86     190/ 13/ 16 1017.5F
MIDDLE BAY LIGHT 1800   84     210/ 12     1018.3F
USCG MOBILE BAY  1800   86 87  200/  7/ 12 1018.5F
STATE DOCKS      1800   86 88              1017.9F
MEAHER PARK      1800   84     190/  8     1018.0F
WEEKS BAY        1700   89                   N/A
FORT MORGAN      1800   86     210/ 17/ 19 1017.9F
12 S ORANGE BCH  1850   85 87  200/ 14/ 16 1018.3F   3/ 5
PENSACOLA BAY    1800   88 87  200/ 10/ 13 1018.7F
64 S DAUPHIN ISL 1800   85 87  180/ 14/ 16 1018.0F
67 S FORT MORGAN 1830   84     190/ 14     1018.3F

$$

SELECTED LOCATIONS ACROSS THE REGION

CITY           SKY/WX    TMP DP  RH WIND       PRES   REMARKS
NEW ORLEANS    PTSUNNY   84  73  69 W13       30.06S
GULFPORT       PTSUNNY   87  74  64 S12G17    30.04F HX  95
PASCAGOULA AP  MOSUNNY   89  79  72 SW7       30.06S HX 104
PASCAGOULA*    NOT AVBL
HATTIESBURG    CLOUDY    88  72  58 SW16G24   30.02F
LAUREL         PTSUNNY  N/A N/A N/A S10       30.02F
MERIDIAN       RAIN      79  75  87 S6        30.00F FOG
JACKSON        RAIN      78  75  90 S13       29.97F FOG
MONTGOMERY     PTSUNNY   91  72  53 S7        30.04F HX  98
TROY           PTSUNNY   88  72  58 VRB6      30.07F
KINSTON*       NOT AVBL
GENEVA*        NOT AVBL
ASHFORD*       NOT AVBL
DOTHAN         MOSUNNY   91  71  51 SW7       30.10F HX  97
PANAMA CITY    MOSUNNY   89  74  60 S15       30.07F HX  98

$$





USA.gov is the U.S. government's official web portal to all federal, state and local government web resources and services.